Location: Vlasim
(49.7000°N, 14.9000°E)
Time: 11:34:07
(UTC+01:00)

ISS - Visible Passes

Search period start: 17 November 2025 00:00
Search period end: 27 November 2025 00:00
Orbit: 415 x 420 km, 51.6° (Epoch: 16 November)

Date Brightness Start Highest point End Pass type
(mag) Time Alt. Az. Time Alt. Az. Time Alt. Az.
17 Nov -3.9 18:13:46 10° WSW 18:17:07 79° SSE 18:17:12 78° SE visible
18 Nov -3.5 17:25:41 10° SW 17:28:58 58° SSE 17:30:57 22° E visible
18 Nov -1.3 19:02:27 10° W 19:03:52 23° W 19:03:52 23° W visible
19 Nov -3.8 18:14:10 10° W 18:17:30 69° N 18:17:34 69° N visible
20 Nov -3.8 17:25:53 10° WSW 17:29:15 83° NNW 17:31:12 23° ENE visible
20 Nov -1.2 19:02:51 10° WNW 19:04:07 21° WNW 19:04:07 21° WNW visible
21 Nov -3.5 18:14:31 10° W 18:17:44 59° NNW 18:17:44 59° NNW visible
22 Nov -3.6 17:26:09 10° W 17:29:28 62° N 17:31:19 24° ENE visible
22 Nov -1.1 19:03:03 10° WNW 19:04:13 20° WNW 19:04:13 20° WNW visible
23 Nov -3.7 16:37:45 10° W 16:41:05 71° NNW 16:44:26 10° ENE visible
23 Nov -3.6 18:14:41 10° WNW 18:17:48 63° NNW 18:17:48 63° NNW visible
24 Nov -3.6 17:26:17 10° WNW 17:29:36 60° N 17:31:22 25° ENE visible
24 Nov -1.1 19:03:05 10° WNW 19:04:17 20° WNW 19:04:17 20° WNW visible
25 Nov -3.6 16:37:49 10° W 16:41:08 59° N 16:44:28 10° E visible
25 Nov -3.8 18:14:40 10° WNW 18:17:52 80° W 18:17:52 80° W visible
26 Nov -3.8 17:26:14 10° WNW 17:29:34 75° NNE 17:31:31 23° E visible
26 Nov -1.1 19:03:06 10° W 19:04:26 20° W 19:04:26 20° W visible
